Location: Shannon
(40.5500°S, 175.4167°E)
Time: 08:40:38
(UTC+00:00)

SL-16 R/B - Pass Details

Date: 17 November 2025
Orbit: 840 x 847 km, 71.0° (Epoch: 14 December)

Event Time Altitude Azimuth Distance (km) Brightness Sun altitude
Rises 13:47:00 0° 199° (SSW) 3,433 6.0 -25.6°
Reaches altitude 10° 13:49:35 10° 192° (SSW) 2,493 5.3 -25.4°
Maximum altitude 13:55:04 45° 119° (ESE) 1,150 3.2 -24.9°
Drops below altitude 10° 14:00:29 10° 47° (NE) 2,470 4.5 -24.4°
Enters shadow 14:01:05 - 45° (NE) 2,687 4.7 -24.3°
